Regional Weather Roundup
Issued by NWS

Home | Current Version | Previous Version | Text Only | Print | Product List | Glossary Off
Versions: 1 2 3 4 5 6 7 8 9 10 11 12 13 14 15 16 17 18 19 20 21 22 23 24 25 26 27 28 29 30 31 32 33 34 35 36 37 38 39 40 41 42 43 44 45 46 47 48 49 50

000
ASUS44 KMEG 201310
RWRTN
TENNESSEE HOURLY STATE WEATHER ROUNDUP
NATIONAL WEATHER SERVICE MEMPHIS TN
700 AM CST THU NOV 20 2014

TNZ002-004-019-021-049-052-054-088>092-201400-
WEST TENNESSEE

CITY           SKY/WX    TMP DP  RH WIND       PRES   REMARKS
MEMPHIS INTL   PTCLDY    34  25  69 CALM      30.27R
NWS MEMPHIS      N/A     28 N/A N/A MISG        N/A
JACKSON        CLEAR     24  21  88 SW3       30.26R
DYERSBURG      CLEAR     27  12  54 CALM      30.28R
UNION CITY     CLEAR     25  19  80 CALM      30.25R
PARIS          CLEAR     19  18  93 CALM      30.25R
HUNTINGDON     CLEAR     22  18  85 CALM      30.25R
LEXINGTON      CLEAR     25  23  93 CALM      30.22S
SAVANNAH       CLEAR     27  25  93 CALM      30.25R
$$

TNZ008-025-027-028-033-062-065-066-201400-
NORTH MIDDLE TENNESSEE

CITY           SKY/WX    TMP DP  RH WIND       PRES   REMARKS
NASHVILLE      PTCLDY    29  25  85 W3        30.23R
CLARKSVILLE    CLEAR     25  22  88 CALM      30.24R
SMYRNA         CLEAR     25  21  84 CALM      30.23R
COOKEVILLE     CLEAR     25  23  93 CALM      30.17S
CROSSVILLE     CLEAR     36  24  62 W8        30.15R WCI  30
$$

TNZ061-075-076-078-094-096-097-201400-
SOUTH MIDDLE TENNESSEE

CITY           SKY/WX    TMP DP  RH WIND       PRES   REMARKS
FAYETTEVILLE   CLEAR     34  23  64 MISG      30.21R
TULLAHOMA      CLEAR     30  23  74 W5          N/A  WCI  25
WINCHESTER     CLEAR     36  25  64 CALM      30.21R
MCMINNVILLE    CLEAR     28  25  86 CALM      30.19R
COLUMBIA       CLEAR     27  27 100 CALM      30.21R
SHELBYVILLE    CLEAR     27  25  93 CALM      30.21S
$$

TNZ017-018-042-046-047-201400-
NORTHEAST TENNESSEE

CITY           SKY/WX    TMP DP  RH WIND       PRES   REMARKS
TRI CITIES     MOCLDY    34  23  64 SW6       30.12R WCI  29
ELIZABETHTON   CLOUDY    28  25  86 CALM      30.12R
$$

TNZ012-013-036-069-073-074-201400-
CENTRAL EAST TENNESSEE

CITY           SKY/WX    TMP DP  RH WIND       PRES   REMARKS
KNOXVILLE      PTCLDY    38  24  57 SW13      30.17R WCI  30
OAK RIDGE      CLEAR     33  25  72 VRB3      30.18R
GATLINBURG     SUNNY     36  21  55 CALM      30.15R
MORRISTOWN     SUNNY     37  25  60 W12       30.14R WCI  30
$$

TNZ083-085-099-201400-
SOUTHEAST TENNESSEE

CITY           SKY/WX    TMP DP  RH WIND       PRES   REMARKS
CHATTANOOGA    PTCLDY    33  26  75 CALM      30.21R
$$

SKY/WX REPORTED AS FAIR MEANS FEW OR NO CLOUDS BELOW
12 THOUSAND FEET.



USA.gov is the U.S. government's official web portal to all federal, state and local government web resources and services.